Hoquiam, WA
on Wednesday, January 23, 2013

Wednesday
Previous Day Next Day
Daily Summary
 ActualAverageRecord
Temperature
Mean Temperature °F 43°F  
Max Temperature 46°F 48°F 58°F (1968)
Min Temperature 37°F 38°F 19°F (1969)
Degree Days
Heating Degree Days 24 22  
Month to date heating degree days 517  
Cooling Degree Days 0 0  
Month to date cooling degree days 0  
Year to date cooling degree days 0  
Moisture
Dew Point 40°F   
Average Humidity 94    
Maximum Humidity 100    
Minimum Humidity 76    
Precipitation
Precipitation 0.63 in 0.31 in 3.01 in (1984)
Month to date precipitation 7.96  
Year to date precipitation 7.96  
Wind
Wind Speed 8 mph   
Max Wind Speed 20 mph   
Max Gust Speed 26 mph   
Visibility 6 miles   
Events Rain   

Key: T is trace of precipitation, MM is missing value
Source: NWS Daily Summary
Time(PST)TemperatureDew PointHumidity Pressure Visibility Wind DirectionWind SpeedGust SpeedPrecipitationEvents Conditions
12:53 AM 41.0°F 34.0°F 76% 29.90 in 10.0 miles NNW 6.9 mph - N/A   Overcast
1:24 AM 39.2°F 33.8°F 81% 29.91 in 10.0 miles ENE 9.2 mph - N/A   Overcast
1:53 AM 39.0°F 34.0°F 82% 29.93 in 9.0 miles ENE 11.5 mph - 0.00 in Rain Light Rain
2:53 AM 41.0°F 37.9°F 89% 29.92 in 6.0 miles NE 6.9 mph - 0.03 in Rain Light Rain
3:53 AM 37.0°F 36.0°F 96% 29.90 in 8.0 miles ENE 13.8 mph - 0.04 in Rain Light Rain
4:53 AM 37.0°F 36.0°F 96% 29.88 in 7.0 miles ENE 10.4 mph - 0.01 in Rain Light Rain
5:53 AM 39.0°F 37.0°F 93% 29.88 in 9.0 miles ENE 9.2 mph - 0.02 in Rain Light Rain
6:53 AM 39.0°F 37.9°F 96% 29.88 in 8.0 miles ENE 8.1 mph - 0.02 in Rain Light Rain
7:53 AM 39.9°F 37.9°F 93% 29.85 in 10.0 miles ENE 11.5 mph - 0.00 in   Overcast
8:16 AM 39.2°F 37.4°F 93% 29.84 in 10.0 miles ENE 8.1 mph - 0.01 in Rain Light Rain
8:45 AM 39.2°F 37.4°F 93% 29.84 in 4.0 miles ENE 9.2 mph - 0.03 in Rain Light Rain
8:53 AM 39.0°F 37.9°F 96% 29.85 in 4.0 miles ENE 10.4 mph - 0.03 in Rain Light Rain
9:53 AM 39.0°F 37.0°F 93% 29.86 in 7.0 miles ENE 9.2 mph - 0.05 in Rain Light Rain
10:53 AM 41.0°F 39.0°F 93% 29.86 in 6.0 miles ENE 8.1 mph - 0.03 in Rain Light Rain
11:53 AM 42.1°F 41.0°F 96% 29.86 in 4.0 miles NE 8.1 mph - 0.04 in Rain Light Rain
12:18 PM 42.8°F 41.0°F 93% 29.84 in 2.5 miles ENE 4.6 mph - 0.04 in Rain Light Rain
12:46 PM 42.8°F 42.8°F 100% 29.84 in 2.5 miles ENE 4.6 mph - 0.09 in Rain Light Rain
12:53 PM 43.0°F 42.1°F 97% 29.85 in 3.0 miles Calm Calm - 0.10 in Rain Light Rain
1:47 PM 44.6°F 44.6°F 100% 29.85 in 4.0 miles WSW 8.1 mph - 0.08 in Rain Light Rain
1:48 PM 44.6°F 44.6°F 100% 29.85 in 4.0 miles WSW 9.2 mph - 0.08 in Rain Light Rain
1:53 PM 46.0°F 44.1°F 93% 29.87 in 5.0 miles WSW 10.4 mph - 0.09 in Rain Light Rain
2:03 PM 44.6°F 42.8°F 93% 29.86 in 6.0 miles West 19.6 mph 26.5 mph 0.01 in Rain Light Rain
2:10 PM 46.4°F 42.8°F 87% 29.87 in 6.0 miles West 16.1 mph 26.5 mph 0.01 in Rain Light Rain
2:53 PM 46.0°F 43.0°F 89% 29.90 in 6.0 miles West 11.5 mph - 0.05 in Rain Light Rain
3:53 PM 45.0°F 42.1°F 90% 29.94 in 10.0 miles WSW 4.6 mph - 0.06 in Rain Light Rain
4:53 PM 44.1°F 43.0°F 96% 29.96 in 10.0 miles SSE 5.8 mph - 0.00 in   Overcast
5:08 PM 44.6°F 42.8°F 93% 29.95 in 10.0 miles SSE 5.8 mph - N/A   Overcast
5:19 PM 44.6°F 42.8°F 93% 29.96 in 10.0 miles South 6.9 mph - N/A   Overcast
5:46 PM 44.6°F 42.8°F 93% 29.98 in 3.0 miles SW 5.8 mph - 0.02 in Rain Light Rain
5:51 PM 44.6°F 42.8°F 93% 29.98 in 2.5 miles WSW 6.9 mph - 0.04 in Rain Light Rain
5:53 PM 44.1°F 44.1°F 100% 29.99 in 2.0 miles SW 6.9 mph - 0.06 in Rain Rain
5:57 PM 44.6°F 44.6°F 100% 29.97 in 1.8 miles SSW 8.1 mph - 0.01 in Rain Rain
6:03 PM 44.6°F 44.6°F 100% 29.98 in 3.0 miles SW 6.9 mph - 0.01 in Rain Light Rain
6:11 PM 44.6°F 42.8°F 93% 29.98 in 3.0 miles SW 8.1 mph - 0.02 in Rain Light Rain
6:22 PM 44.6°F 42.8°F 93% 29.99 in 9.0 miles SW 8.1 mph - 0.02 in   Overcast
6:53 PM 44.6°F 42.8°F 93% 30.01 in 10.0 miles West 10.4 mph - N/A   Overcast
7:37 PM 44.6°F 42.8°F 93% 30.04 in 10.0 miles West 11.5 mph - 0.00 in   Overcast
7:53 PM 45.0°F 42.1°F 90% 30.06 in 10.0 miles West 6.9 mph - 0.00 in   Overcast
8:53 PM 41.0°F 39.9°F 96% 30.09 in 10.0 miles WSW 3.5 mph - N/A   Partly Cloudy
9:53 PM 39.9°F 39.0°F 97% 30.13 in 6.0 miles Calm Calm - N/A   Scattered Clouds
10:53 PM 37.9°F 36.0°F 93% 30.15 in 5.0 miles Calm Calm - N/A   Clear
11:46 PM 37.4°F 37.4°F 100% 30.16 in 7.0 miles Calm Calm - N/A   Mostly Cloudy
11:53 PM 37.9°F 37.0°F 97% 30.17 in 7.0 miles Calm Calm - N/A   Mostly Cloudy
Moon Phase
Jan. 23 Jan. 26 Feb. 03 Feb. 10 Feb. 17
Sunrise:07:50 AM (PST) Moon Rise:02:17 PM (PST)1/23
Sunset:05:05 PM (PST) Moon Set:05:09 AM (PST)1/23

Copyright © 2014 The Weather Underground, Inc.